Theta_e
306 307 306 307 307 306 305 300 301 310 310 300 301 299 302 302 305 307 309 308 305 304 304 302 301 301 304 306 306 302 299 303 297 296 299 299 298 298 300 295 292 292 293 293
306 307 307 306 307 306 303 298 302 313 314 298 299 303 302 305 304 306 307 306 308 307 304 300 303 304 306 304 303 302 302 297 293 293 297 300 298 296 296 297 298 293 291 294
306 307 307 307 307 306 305 302 303 308 312 309 302 300 299 299 306 305 308 307 307 304 301 303 303 303 302 305 305 310 309 297 294 291 297 298 296 296 297 300 295 294 294 295
306 306 308 308 307 306 306 303 300 302 299 303 303 302 300 298 300 305 306 305 304 303 300 300 300 304 302 303 307 303 305 298 297 296 296 297 297 296 296 296 296 295 296 296
306 306 308 308 307 306 304 299 298 302 302 304 303 301 300 299 300 302 301 302 302 304 301 301 299 302 301 302 302 305 305 297 299 294 297 297 296 298 297 297 297 296 296 297
307 308 307 307 307 306 302 302 304 301 301 302 301 300 301 301 302 304 303 302 302 301 302 304 304 305 304 303 304 301 304 300 297 291 295 296 292 296 298 298 300 299 296 299
308 307 307 307 307 307 304 302 301 302 299 301 300 302 302 302 303 302 305 306 303 305 307 307 307 308 307 306 304 303 299 299 297 294 295 287 296 301 301 299 298 300 299 299
307 308 307 308 308 307 305 305 302 302 300 301 302 302 302 304 305 303 304 306 308 307 302 300 298 297 300 301 303 302 302 300 294 292 292 293 295 297 297 297 296 298 297 297
307 308 308 308 308 307 305 304 304 303 302 301 303 301 303 301 300 303 304 309 311 305 300 297 291 291 293 295 298 303 303 303 299 293 290 288 293 298 301 301 293 298 297 297
307 307 308 308 308 307 305 304 304 304 304 306 306 302 301 304 302 301 303 306 307 308 301 297 294 294 298 294 293 294 297 298 295 292 292 291 296 298 302 290 291 298 299 298
307 308 308 309 308 308 305 303 305 303 303 306 307 308 306 306 305 302 306 304 306 305 299 299 297 297 297 295 295 292 294 294 292 294 290 286 298 296 293 293 297 296 296 296
307 308 308 309 309 308 305 302 304 305 302 304 307 310 312 311 309 308 307 306 305 306 301 300 301 298 299 294 289 296 294 296 295 294 292 297 297 295 296 296 295 295 293 294
308 308 308 309 309 308 306 303 303 305 306 309 310 310 313 315 313 313 307 308 309 309 307 304 301 296 299 295 294 294 293 294 294 293 293 294 295 296 295 295 294 293 293 292
307 308 308 308 308 307 306 304 304 304 306 306 308 314 313 317 315 311 312 313 310 309 307 303 300 296 298 294 295 295 295 294 292 290 293 294 294 295 293 293 292 291 291 290
307 308 308 308 308 307 307 306 306 305 305 305 307 312 314 315 315 309 312 311 306 303 302 301 297 299 297 295 295 293 294 293 291 289 293 294 291 293 292 291 289 289 289 289
307 308 308 308 307 306 306 309 307 306 307 306 305 311 310 313 314 307 308 309 306 303 302 300 300 299 298 294 291 292 293 295 295 294 295 295 293 292 293 291 289 289 289 289
307 307 308 308 308 307 309 307 309 306 309 307 305 305 309 311 312 312 308 306 304 305 300 300 300 299 299 295 291 294 295 295 296 296 296 292 291 290 291 290 289 290 289 289
307 307 308 308 307 306 308 311 307 307 308 308 304 305 307 310 308 308 310 305 303 300 300 300 299 298 297 293 293 295 295 295 295 294 294 292 292 292 290 290 289 287 287 288
306 307 309 309 308 310 308 309 309 310 307 302 305 303 301 310 308 309 308 305 297 300 298 299 299 296 293 294 293 294 295 295 294 294 292 291 289 290 289 289 288 287 286 287
305 307 308 307 307 306 308 308 305 305 306 305 302 306 304 307 307 306 305 303 298 295 296 299 297 294 296 296 299 299 297 296 295 291 288 288 288 288 288 287 288 288 287 287
302 298 298 302 306 308 306 303 304 306 304 306 307 307 306 308 303 303 304 300 299 294 295 295 293 293 295 297 297 297 297 296 295 294 293 291 290 289 289 288 288 288 288 287
300 299 301 302 304 305 301 303 304 303 301 304 304 306 307 306 306 303 301 298 298 292 297 294 290 296 297 297 296 296 296 295 294 294 292 291 290 290 290 289 288 288 289 288
303 298 297 299 303 294 298 297 300 300 305 306 306 305 306 304 305 301 301 296 295 297 293 292 295 296 296 297 296 295 296 295 294 292 292 291 291 291 291 290 291 291 289 289
296 296 289 296 298 301 304 304 305 308 308 307 307 304 305 303 300 298 293 295 296 290 289 291 298 296 296 297 296 295 294 294 293 292 291 291 291 291 291 292 293 292 291 290
296 298 290 296 302 305 306 308 307 306 308 305 303 302 302 298 295 295 293 291 288 291 292 296 298 298 297 296 295 295 295 295 293 292 291 291 291 292 292 294 295 294 293 292
296 295 296 301 299 303 306 307 305 307 307 306 305 299 297 295 295 292 291 289 289 293 298 299 297 297 297 296 296 296 296 295 293 292 292 292 292 293 294 294 294 293 292 291
297 298 303 301 300 299 304 309 309 309 307 303 300 296 294 295 293 291 294 294 297 297 298 297 298 297 297 297 296 296 295 295 294 293 293 293 294 295 294 293 293 293 293 292
Wind_Speed
28 27 29 28 27 29 6 4 3 4 6 5 2 4 4 2 5 3 3 3 4 3 3 2 3 4 3 2 6 6 2 3 4 2 3 0 3 2 7 8 7 2 1 3
29 27 28 30 29 27 5 4 3 3 4 3 4 2 1 1 1 3 4 3 1 2 4 4 4 2 2 2 4 5 6 4 4 3 4 2 2 3 3 5 3 7 5 3
28 27 28 29 30 29 1 3 2 3 2 3 4 3 4 2 4 5 3 3 3 3 2 4 6 7 2 5 2 2 4 5 3 4 7 4 5 5 6 3 4 7 5 5
27 28 27 29 31 30 2 5 4 3 5 5 7 6 7 3 4 4 2 3 1 4 3 2 2 4 7 4 6 5 1 8 4 4 2 1 7 9 7 3 5 4 3 5
26 27 26 28 31 28 5 4 5 6 5 6 12 10 11 9 3 8 4 6 6 5 4 4 0 2 3 4 4 3 5 4 5 2 4 5 8 6 4 4 3 1 2 4
25 25 25 25 27 19 5 4 3 4 7 7 5 5 10 11 5 9 9 3 9 11 6 5 6 8 9 5 3 4 7 5 0 2 2 2 2 4 3 4 4 4 4 7
24 24 24 23 23 20 2 3 3 4 7 7 3 9 4 11 10 6 7 11 4 4 4 7 6 12 15 17 14 7 4 4 2 8 8 13 5 6 3 6 5 5 3 3
24 22 22 20 19 20 3 4 4 4 5 4 6 15 8 10 8 7 6 8 5 5 2 1 3 2 1 8 11 10 5 4 5 4 6 3 1 3 3 2 2 3 2 4
24 23 20 18 17 18 3 3 3 1 2 9 6 5 9 6 7 4 5 4 5 2 3 3 2 2 3 3 3 5 9 5 3 5 7 7 5 2 3 1 3 2 5 8
24 23 21 18 16 15 5 2 4 2 2 3 5 6 5 4 3 2 3 8 9 6 3 3 2 3 2 2 2 4 3 4 2 3 3 5 4 2 3 4 3 6 9 9
23 21 19 17 14 13 5 2 4 3 2 2 3 4 4 3 3 4 5 3 2 3 4 1 2 2 4 3 3 2 3 2 2 2 3 4 8 2 3 5 4 8 9 11
22 21 18 15 13 10 4 1 1 2 2 3 3 5 6 4 4 2 3 3 1 3 2 2 3 3 3 3 3 2 2 4 2 3 4 6 10 11 5 6 7 8 10 12
22 20 18 15 12 8 4 2 3 2 2 2 2 2 2 1 4 3 3 2 2 3 3 2 3 5 1 2 3 3 3 3 4 6 5 6 7 6 7 7 7 8 10 12
22 20 18 14 10 6 2 2 1 2 0 1 1 4 1 4 3 2 2 5 5 4 1 3 3 3 2 2 3 1 3 0 5 5 6 9 5 8 8 9 9 10 11 12
24 22 18 14 8 2 2 2 1 1 3 1 2 5 1 5 5 7 5 6 4 3 3 3 3 3 3 2 2 3 2 3 1 3 5 2 3 6 9 10 11 11 12 13
25 23 17 12 4 4 2 2 3 3 1 3 1 2 2 4 5 7 6 5 4 3 3 3 3 3 1 2 2 3 4 5 3 5 3 5 5 5 8 8 10 11 11 12
25 22 15 6 6 3 2 3 3 5 2 2 2 2 1 2 1 2 2 3 3 3 3 2 2 2 1 2 2 11 7 7 8 7 6 4 7 4 6 6 8 9 9 10
26 19 9 6 10 7 2 2 4 4 2 2 2 2 1 2 1 2 2 2 2 4 3 2 2 3 0 2 6 11 9 8 7 7 8 5 2 2 4 6 7 8 10 11
23 8 8 4 2 2 2 10 7 0 3 1 1 2 1 0 2 1 2 1 2 0 2 2 2 2 3 3 13 12 11 6 8 8 8 6 4 3 6 7 8 9 10 10
12 2 2 2 2 10 4 4 3 3 3 2 3 1 2 2 1 2 2 1 2 2 3 3 1 1 2 5 9 9 9 7 9 8 6 5 4 3 5 5 7 7 8 9
5 6 3 5 9 2 2 2 3 2 3 4 3 6 2 3 2 2 1 2 2 2 3 2 1 2 5 9 10 9 8 7 5 8 9 6 4 5 6 6 7 7 8 8
6 5 5 4 3 2 3 3 2 5 4 4 3 3 3 3 1 2 3 1 2 1 4 3 2 2 10 13 13 11 9 9 9 9 8 8 7 8 7 6 7 7 8 8
2 3 3 2 2 2 6 7 4 4 5 6 5 4 2 3 2 3 2 3 2 4 3 2 2 7 11 13 12 12 10 10 10 9 9 9 9 7 6 6 5 6 7 7
2 3 4 6 5 6 6 5 3 3 4 7 4 4 2 1 3 1 3 3 3 2 3 3 4 11 13 13 12 13 12 11 10 11 10 9 8 7 5 3 3 5 5 5
4 3 6 6 4 4 3 4 3 3 4 6 5 4 2 2 3 1 3 4 3 4 3 2 5 13 15 15 13 12 12 11 10 11 10 9 7 5 4 2 2 1 3 3
3 5 5 4 3 4 1 2 3 3 4 3 3 3 3 3 2 4 4 3 4 2 2 4 9 13 14 14 13 12 11 11 11 11 10 8 6 4 0 1 2 3 3 4
4 4 5 6 6 7 4 2 2 2 2 2 3 5 2 3 2 3 4 4 1 3 4 5 9 14 14 13 13 12 11 11 11 11 9 6 4 2 3 3 5 3 3 3
Wind_Direction
342 341 341 340 339 338 336 318 115 143 177 161 216 177 201 245 141 58 86 102 115 148 143 37 93 105 47 344 137 154 47 134 180 81 7 172 57 153 163 209 184 65 322 156
343 343 342 343 343 345 310 342 298 171 237 122 139 0 295 290 108 106 112 134 114 140 147 140 132 81 352 143 117 149 176 42 146 147 153 118 101 102 92 100 107 176 205 167
345 345 345 342 344 346 277 317 41 0 65 18 56 17 15 117 29 77 103 117 111 115 92 46 154 149 196 89 114 139 93 109 120 275 279 133 165 171 167 145 171 155 218 148
348 350 349 347 348 349 289 5 48 23 357 16 44 30 2 20 71 52 26 88 159 127 115 108 111 158 130 114 167 102 128 163 133 39 217 265 140 157 170 154 141 229 120 182
352 354 352 353 352 347 60 43 12 343 13 348 11 14 13 18 62 5 29 80 82 66 71 17 119 147 149 159 103 80 15 47 78 43 351 127 99 69 103 59 100 240 126 140
348 349 356 358 0 0 36 7 327 290 30 109 357 3 2 333 283 47 53 59 99 70 31 2 63 84 74 57 119 117 134 134 30 155 110 8 102 17 359 69 44 353 248 59
346 351 356 360 5 14 353 2 296 348 45 61 42 338 326 31 30 73 27 33 64 42 297 118 109 70 72 59 48 36 102 150 242 214 199 234 73 40 22 100 74 54 75 37
347 349 355 357 0 9 14 356 2 16 70 351 18 14 7 26 33 43 45 33 357 317 135 111 62 37 108 62 44 32 55 163 123 157 198 73 202 28 8 351 109 73 3 346
346 347 350 353 356 6 14 24 330 347 331 21 315 342 12 19 355 22 19 0 342 43 58 52 60 73 1 63 103 52 51 58 175 125 217 226 78 54 11 154 225 69 0 354
344 345 347 349 353 359 2 12 1 291 54 27 345 26 358 348 14 360 333 346 357 6 46 69 70 99 347 135 54 349 9 25 113 144 115 109 52 3 180 227 59 18 3 353
343 342 343 344 349 351 4 345 357 349 29 345 340 350 7 15 23 16 358 246 41 24 65 58 101 91 78 99 44 17 29 6 78 119 141 188 15 81 286 20 356 351 342 334
340 342 341 341 344 348 19 319 352 334 253 334 303 288 290 273 331 324 31 56 22 28 72 79 115 113 106 140 143 66 174 16 93 15 77 65 59 91 70 15 343 344 331 330
339 338 337 336 338 341 343 306 325 258 322 206 253 21 59 194 230 249 333 129 108 98 4 86 86 94 272 131 112 120 89 356 94 170 110 112 97 90 45 13 358 344 338 329
338 338 335 334 333 335 314 295 354 306 79 297 104 340 66 338 16 186 271 117 94 96 41 72 72 95 331 85 88 57 19 90 126 99 110 134 109 45 28 6 3 352 344 338
337 337 334 329 327 316 234 240 235 263 321 322 300 308 42 347 21 58 102 93 88 44 76 55 72 96 154 83 159 106 344 115 188 93 115 32 65 40 24 6 358 352 345 343
332 334 329 325 296 168 239 202 163 210 254 296 265 354 296 9 43 71 65 72 76 66 64 85 99 68 293 120 103 96 100 94 48 119 115 111 71 88 24 6 0 350 353 352
330 329 324 311 188 180 322 11 26 168 234 298 299 330 84 339 40 76 74 40 77 58 99 83 102 105 19 114 154 153 143 118 103 93 121 129 62 19 22 12 357 353 358 355
328 326 322 133 156 278 192 78 158 172 282 280 295 276 269 3 62 117 12 121 94 40 99 135 115 133 153 153 129 147 147 133 117 98 89 91 89 79 46 23 3 8 10 4
328 336 113 136 194 224 66 338 142 280 300 285 235 257 182 96 75 44 136 356 89 104 103 91 213 147 211 150 156 167 167 171 150 133 114 104 68 43 50 33 25 23 16 9
328 274 251 198 67 320 296 179 206 197 186 220 249 170 224 227 149 117 185 17 100 153 77 140 42 211 75 159 164 162 166 152 150 156 141 137 107 81 67 51 37 31 23 17
14 1 322 333 313 217 212 241 234 154 223 191 230 204 213 176 212 145 338 120 126 194 127 246 187 234 172 154 143 133 127 130 125 104 109 114 124 116 101 79 54 42 36 28
301 298 288 283 269 175 234 213 173 215 231 179 196 176 201 137 193 183 162 157 187 201 141 207 228 157 149 152 148 142 141 136 126 122 126 132 125 121 110 88 69 54 48 41
240 215 250 224 181 191 218 195 197 214 185 174 172 160 161 148 195 99 179 186 116 140 202 242 222 132 156 155 150 148 142 140 132 128 129 133 131 130 115 100 76 66 55 48
248 249 278 208 194 227 210 214 197 180 158 152 144 118 188 122 159 124 178 83 165 196 223 231 156 166 163 159 156 153 155 156 149 144 146 144 142 139 133 96 62 51 57 58
236 210 244 228 274 278 281 277 260 177 149 135 126 106 191 122 129 99 118 170 225 228 225 174 136 156 158 159 161 159 159 162 152 153 155 151 151 152 139 108 18 16 53 56
235 242 270 261 283 287 291 275 257 151 155 116 97 126 164 159 157 178 200 192 222 195 192 120 139 155 159 160 162 161 161 159 154 161 161 161 169 175 149 6 82 82 74 61
250 254 241 267 267 261 273 300 313 103 248 154 138 178 154 117 186 207 189 213 187 151 138 143 157 159 159 158 157 159 162 160 160 164 168 175 174 216 267 236 140 114 117 90